Terug naar catalogus

STARLINK-2134

ActiefCommunicatieVLEO
NORAD 47407·PAYLOAD·🇺🇸 United States

Gelanceerd Jan 20, 2021 vanaf Cape Canaveral Space Force Station

Loading…

Volgende Passages (komende 24 uur)

TLE

VersSource: CelesTrak SupGP

Epoch: Sep 15, 2026, 00:04 UTC

1 47407C 21005BL  26258.00326389  .00004819  00000+0  14246-3 0  2583
2 47407  53.1583 237.4112 0003816  58.4385 358.5315 15.34360803    14

Volg STARLINK-2134 in realtime met AllMySat

Download on the App Store